OPS 4682 DEB, 38410

Orbit data source: Space-Track

OPS 4682 DEB, 38410 is space debris in LEO originally from a launch on Sat, 03 Apr 1965 UTC launched from the Air Force Western Test Range (AFWTR). Debris objects in space refer to the collection of defunct objects orbiting the Earth. Examples of debris include non-operational satellites, rocket bodies, and fragments generated from explosions, collisions, or faulty payload assembly.

Loading next visibility...
Identifier
38410, 1965-027DP
Orbit
LEO
Country
Flag of USUS
Related business
Manufacturer
Unknown
Mission
Spacecraft
Bus & Motor
Unknown
Mass
Unknown
Launch date (UTC)
1965-04-03 (61 years ago)
Launch vehicle
Unknown
Launch site
Air Force Western Test Range (AFWTR)
Object type
Payload
Rocket body
Debris
Shape & HBR
Unknown shape, 0.1 m
Radar Cross Section
Medium (>0.1 m² and <1 m²)

Expand to show TLE details & history
Last TLE update: 2 days ago

TLE from 2 days ago
0 OPS 4682 DEB
1 38410U 65027DP  26148.37691599  .00000711  00000-0  24165-2 0  9995
2 38410  90.2453  10.3673 0032499 154.9720 205.2984 12.97559099628435
Epoch: 2026-05-28T09:02Z
TLE epoch observation values (Epoch: 2026-05-28T09:02:45.541Z)
Latitude
-0.00009°
Longitude
-11.24498°
Altitude
1,297.041 km
Speed
7.197 km/s
True Right ascension
00h 41m 28s
True Declination
0° 00' 00"
Sunlit
Object was in daylight at epoch
Visualization orbit readout
Latitude
Unknown
Longitude
Unknown
Altitude
Unknown
Speed
Unknown
Apparent Right ascension
Unknown
Apparent Declination
Unknown
Sunlit
N/A
Visualization observer readout
Local Sidereal Time
02:41:32
Azimuth
Unknown
Elevation
Unknown
Doppler factor
Unknown
Orbital elements
Apogee altitude
1,293.648 km
Perigee altitude
1,243.944 km
Semi-major axis
7,646.933 km
Eccentricity
0.00325
Inclination
90.2453°
RAAN
10.3673°
Arg. of periapsis
154.972°
True anomaly
205.13984°
Mean anomaly
205.2984°
Eccentric anomaly
205.21906°
Mean motion
3.24573 °/min
Orbital period
110.91 mins
BSTAR
0.0024165
Loading maneuver chart data...
Computing Atmospheric mass density...
Loading historical data...
Loading historical data...
Loading historical data...
Loading historical data...
Loading historical data...
Loading historical data...
Loading historical data...

Documentation

Showing up to 5 results
|